Flag for Germany Weather past 2 weeks in Kerpen, North Rhine-Westphalia, Germany

Now
57 °F

Passing clouds.


Feels Like: 57 °F
Forecast: 60 / 70 °F
Wind: 2 mph from Southeast

Location: Noervenich

Current Time: Aug 28, 2014 at 2:08:12 AM

Latest Report: Aug 28, 2014 at 1:20 AM


Visibility: N/A

Pressure: 30.04 "Hg

Humidity: 88%

Dew point: 54 °F

Location of KerpenLocation

Historic Weather in Kerpen — Graph

°F

Kerpen temperature yesterday

Maximum temperature yesterday: 70 °F (at 6:20 PM)
Minimum temperature yesterday: 52 °F (at 6:20 AM)
Average temperature yesterday: 60 °F

Past Weeks' High & Low Weather Summary

 TemperatureHumidityPressure
High70 °F (Aug 27, 6:20 PM)100% (Aug 13, 4:20 PM)30.12 "Hg (Aug 13, 4:20 PM)
Low45 °F (Aug 20, 6:20 AM)40% (Aug 21, 3:20 PM)29.62 "Hg (Aug 26, 4:20 AM)
Average58 °F79%29.90 "Hg
* Reported Aug 13 12:20 AM — Aug 28 12:20 AM, Kerpen, Weather by CustomWeather, © 2014

Note: Actual official high and low records may vary slightly from our data, if they occured in-between our weather recording intervals... More about our weather records

Advertising

Kerpen weather history for previous 24 hours

 ConditionsComfort  
Time TempWeatherWind HumidityBarometerVisibility
12:20 AM
Aug 28
57 °FPassing clouds.2 mph88%30.04 "HgN/A
11:20 PM
Aug 27
57 °FPassing clouds.1 mph88%30.04 "HgN/A
10:20 PM59 °FPassing clouds.1 mph82%30.04 "HgN/A
9:20 PM61 °FScattered clouds.1 mph83%30.01 "HgN/A
8:20 PM63 °FScattered clouds.1 mph77%30.01 "HgN/A
7:20 PM66 °FScattered clouds.2 mph64%30.01 "HgN/A
6:20 PM70 °FScattered clouds.3 mph57%30.01 "HgN/A
5:20 PM68 °FScattered clouds.2 mph60%30.01 "HgN/A
4:20 PM68 °FScattered clouds.3 mph56%30.01 "HgN/A
3:20 PM66 °FScattered clouds.2 mph60%30.01 "HgN/A
2:20 PM66 °FScattered clouds.3 mph60%30.01 "HgN/A
1:20 PM64 °FPassing clouds.5 mph64%30.04 "HgN/A
12:20 PM63 °FScattered clouds.3 mph73%30.04 "HgN/A
11:20 AM61 °FScattered clouds.2 mph83%30.01 "HgN/A
10:47 AM59 °FScattered clouds.2 mph88%30.01 "HgN/A
10:20 AM55 °FBroken clouds.1 mph100%30.01 "HgN/A
9:20 AM54 °FFog.1 mph100%29.98 "Hg1 mi
8:20 AM54 °FFog.No wind100%29.98 "Hg0 mi
7:20 AM52 °FFog.2 mph100%29.95 "Hg0 mi
6:20 AM52 °FFog.No wind100%29.92 "Hg0 mi
5:20 AM54 °FPassing clouds.No wind100%29.89 "Hg4 mi
4:20 AM55 °FPassing clouds.No wind94%29.89 "HgN/A
3:20 AM55 °FPartly cloudy.No wind94%29.86 "HgN/A
2:20 AM55 °FPartly cloudy.2 mph100%29.86 "Hg5 mi
Weather by CustomWeather, © 2014

See weather overviewHow to use our weather pages